Location: Allos
(44.2333°N, 6.6333°E)
Time: 19:19:11
(UTC+00:00)

Cosmos 2228 Rocket - Pass Details

Date: 28 April 2021
Orbit: 617 x 652 km, 82.5° (Epoch: 05 May)

Event Time Altitude Azimuth Distance (km) Brightness Sun altitude
Exits shadow 23:30:20 32° 343° (NNW) 1,082 4.7 -31.3°
Drops below altitude 10° 23:32:52 10° 360° (N) 1,996 6.5 -31.3°
Sets 23:35:09 0° 5° (N) 2,910 7.7 -31.3°
